VE6CPK-13 Weather Reports


Display with metric or nautical units.
time (UTC)temp
F
wind
direction
speed
MPH
gust
MPH
rain 1hr
in
rain 24hr
in
rain mn
in
humidity
%
barometer
mb
20260507015010 66 34 2.0 10.0 0.00 0.00 0.00 30 1002.4
20260507014509 66 355 1.0 10.0 0.00 0.00 0.00 31 1002.4
20260507014008 66 41 1.0 10.0 0.00 0.00 0.00 31 1002.4
20260507013508 66 4 0.0 10.0 0.00 0.00 0.00 31 1002.4
20260507013010 66 45 0.0 10.0 0.00 0.00 0.00 31 1002.4
20260507012509 66 16 2.0 10.0 0.00 0.00 0.00 31 1002.4
20260507012019 66 5 2.0 10.0 0.00 0.00 0.00 31 1002.4
20260507011520 66 10 2.0 10.0 0.00 0.00 0.00 31 1002.3
20260507011019 66 3 3.0 10.0 0.00 0.00 0.00 31 1002.4
20260507010519 66 12 3.0 10.0 0.00 0.00 0.00 31 1002.3
20260507010020 66 33 2.0 10.0 0.00 0.00 0.00 31 1002.2
20260507005519 66 27 1.0 10.0 0.00 0.00 0.00 31 1002.2
20260507005021 66 13 0.0 10.0 0.00 0.00 0.00 31 1002.3
20260507004521 67 34 3.0 8.0 0.00 0.00 0.00 31 1002.5
20260507004021 67 7 3.0 8.0 0.00 0.00 0.00 30 1002.5
20260507003520 67 27 0.0 7.0 0.00 0.00 0.00 29 1002.3
20260507003021 67 31 0.0 7.0 0.00 0.00 0.00 30 1002.1
20260507002519 68 31 0.0 7.0 0.00 0.00 0.00 30 1002.0
20260507002021 68 30 0.0 7.0 0.00 0.00 0.00 31 1002.2
20260507001521 68 30 0.0 7.0 0.00 0.00 0.00 29 1002.0
20260507001020 68 30 0.0 7.0 0.00 0.00 0.00 30 1002.0
20260507000520 68 30 0.0 7.0 0.00 0.00 0.00 28 1001.9
20260507000020 68 28 0.0 7.0 0.00 0.00 0.00 29 1001.8
20260506235520 68 5 0.0 7.0 0.00 0.00 0.00 29 1001.7
20260506235020 69 71 0.0 7.0 0.00 0.00 0.00 29 1001.5
20260506234520 69 148 0.0 7.0 0.00 0.00 0.00 28 1001.6
20260506234021 69 84 0.0 7.0 0.00 0.00 0.00 28 1001.8
20260506233520 69 9 2.0 7.0 0.00 0.00 0.00 27 1001.8
20260506233020 69 15 2.0 7.0 0.00 0.00 0.00 26 1001.9
20260506232520 70 0 2.0 7.0 0.00 0.00 0.00 25 1002.1
20260506232020 70 346 0.0 7.0 0.00 0.00 0.00 25 1002.1
20260506231520 70 347 0.0 7.0 0.00 0.00 0.00 25 1002.0
20260506231020 70 347 1.0 7.0 0.00 0.00 0.00 25 1001.9
20260506230520 70 30 0.0 7.0 0.00 0.00 0.00 25 1002.0
20260506230020 71 2 2.0 7.0 0.00 0.00 0.00 25 1002.1
20260506225519 71 40 3.0 7.0 0.00 0.00 0.00 24 1002.1
20260506225020 71 18 1.0 7.0 0.00 0.00 0.00 24 1002.1
20260506224519 71 25 2.0 7.0 0.00 0.00 0.00 24 1002.3
20260506224020 70 13 1.0 7.0 0.00 0.00 0.00 24 1002.3
20260506223520 70 17 1.0 7.0 0.00 0.00 0.00 25 1002.4
20260506223020 70 22 1.0 7.0 0.00 0.00 0.00 25 1002.6
20260506222520 70 9 1.0 7.0 0.00 0.00 0.00 24 1002.6
20260506222020 70 66 0.0 7.0 0.00 0.00 0.00 25 1002.6
20260506221520 71 30 2.0 7.0 0.00 0.00 0.00 24 1002.7
20260506221020 71 353 1.0 7.0 0.00 0.00 0.00 24 1002.8
20260506220520 71 351 0.0 7.0 0.00 0.00 0.00 24 1002.8
20260506220020 71 346 1.0 7.0 0.00 0.00 0.00 24 1002.9
20260506215520 71 343 2.0 7.0 0.00 0.00 0.00 24 1002.9
20260506215019 71 20 0.0 7.0 0.00 0.00 0.00 24 1003.0
20260506214519 71 5 0.0 7.0 0.00 0.00 0.00 24 1003.1
20260506214019 71 285 0.0 7.0 0.00 0.00 0.00 24 1003.1
20260506213519 71 126 0.0 7.0 0.00 0.00 0.00 24 1003.1
20260506213019 71 26 0.0 7.0 0.00 0.00 0.00 24 1003.1
20260506212519 71 28 0.0 7.0 0.00 0.00 0.00 25 1003.2
20260506212019 71 146 0.0 7.0 0.00 0.00 0.00 25 1003.1
20260506211518 71 19 0.0 7.0 0.00 0.00 0.00 25 1003.2
20260506211020 71 9 1.0 7.0 0.00 0.00 0.00 25 1003.2
20260506210520 71 15 0.0 7.0 0.00 0.00 0.00 25 1003.3
20260506210020 70 13 0.0 7.0 0.00 0.00 0.00 25 1003.4
20260506205520 70 13 1.0 7.0 0.00 0.00 0.00 25 1003.4
20260506205020 70 254 0.0 7.0 0.00 0.00 0.00 25 1003.4
20260506204520 70 9 0.0 7.0 0.00 0.00 0.00 25 1003.4
20260506204019 70 28 0.0 7.0 0.00 0.00 0.00 25 1003.5
20260506203519 70 19 0.0 7.0 0.00 0.00 0.00 25 1003.5
20260506203019 70 7 1.0 7.0 0.00 0.00 0.00 25 1003.5
20260506202519 71 19 1.0 7.0 0.00 0.00 0.00 24 1003.5
20260506202019 71 19 2.0 7.0 0.00 0.00 0.00 24 1003.5
20260506201519 71 30 2.0 7.0 0.00 0.00 0.00 24 1003.5
20260506201019 71 5 1.0 7.0 0.00 0.00 0.00 23 1003.5
20260506200519 71 0 0.0 7.0 0.00 0.00 0.00 24 1003.6
20260506200019 72 0 0.0 7.0 0.00 0.00 0.00 24 1003.8
20260506195518 72 0 1.0 7.0 0.00 0.00 0.00 24 1003.8
20260506195018 71 19 1.0 7.0 0.00 0.00 0.00 24 1003.8
20260506194518 71 21 1.0 7.0 0.00 0.00 0.00 24 1003.9
20260506194018 72 30 1.0 7.0 0.00 0.00 0.00 25 1003.9
20260506193520 72 177 0.0 7.0 0.00 0.00 0.00 25 1004.0
20260506193020 72 177 1.0 7.0 0.00 0.00 0.00 26 1004.1
20260506192520 72 21 0.0 7.0 0.00 0.00 0.00 26 1004.2
20260506192020 71 50 1.0 7.0 0.00 0.00 0.00 24 1004.3
20260506191519 71 28 1.0 7.0 0.00 0.00 0.00 25 1004.4
20260506191019 71 333 0.0 7.0 0.00 0.00 0.00 26 1004.6
20260506190520 70 333 0.0 7.0 0.00 0.00 0.00 25 1004.7
20260506190019 70 38 0.0 7.0 0.00 0.00 0.00 26 1004.8
20260506185520 69 173 0.0 7.0 0.00 0.00 0.00 26 1004.9
20260506185020 69 177 0.0 7.0 0.00 0.00 0.00 27 1005.0
20260506184518 68 186 1.0 7.0 0.00 0.00 0.00 28 1005.1
20260506184020 68 182 2.0 7.0 0.00 0.00 0.00 28 1005.2
20260506183520 68 181 1.0 7.0 0.00 0.00 0.00 28 1005.3
20260506183019 67 180 1.0 7.0 0.00 0.00 0.00 30 1005.3
20260506182519 67 153 0.0 7.0 0.00 0.00 0.00 32 1005.4
20260506182020 66 180 1.0 7.0 0.00 0.00 0.00 29 1005.5
20260506181520 66 176 0.0 7.0 0.00 0.00 0.00 30 1005.6
20260506181018 65 173 1.0 7.0 0.00 0.00 0.00 30 1005.7
20260506180518 65 164 0.0 7.0 0.00 0.00 0.00 30 1005.8
20260506180019 64 130 0.0 7.0 0.00 0.00 0.00 31 1005.9
20260506175518 64 161 1.0 7.0 0.00 0.00 0.00 31 1006.0
20260506175019 63 189 0.0 7.0 0.00 0.00 0.00 31 1006.1
20260506174519 63 172 0.0 7.0 0.00 0.00 0.00 31 1006.3
20260506174022 63 186 0.0 7.0 0.00 0.00 0.00 31 1006.4
20260506173523 62 173 0.0 7.0 0.00 0.00 0.00 34 1006.5
20260506173023 61 171 0.0 7.0 0.00 0.00 0.00 33 1006.6
20260506172523 61 178 0.0 7.0 0.00 0.00 0.00 34 1006.7
20260506172022 60 176 0.0 7.0 0.00 0.00 0.00 36 1006.8
20260506171522 59 177 0.0 7.0 0.00 0.00 0.00 35 1006.9
20260506171024 59 176 1.0 6.0 0.00 0.00 0.00 35 1007.0
20260506170523 58 167 0.0 6.0 0.00 0.00 0.00 34 1007.1
20260506170023 58 167 1.0 6.0 0.00 0.00 0.00 36 1007.3
20260506165523 57 167 0.0 6.0 0.00 0.00 0.00 36 1007.3
20260506165023 57 167 0.0 6.0 0.00 0.00 0.00 37 1007.5
20260506164523 56 168 0.0 6.0 0.00 0.00 0.00 38 1007.6
20260506164023 56 168 0.0 6.0 0.00 0.00 0.00 38 1007.7
20260506163522 55 168 0.0 6.0 0.00 0.00 0.00 40 1007.7
20260506163022 54 166 0.0 6.0 0.00 0.00 0.00 40 1007.8
20260506162523 54 169 0.0 6.0 0.00 0.00 0.00 40 1007.9
20260506162024 53 171 0.0 6.0 0.00 0.00 0.00 41 1007.9
20260506161523 53 167 0.0 6.0 0.00 0.00 0.00 42 1008.0
20260506161023 52 167 0.0 6.0 0.00 0.00 0.00 42 1008.0
20260506160522 51 166 0.0 6.0 0.00 0.00 0.00 43 1008.2
20260506160022 50 166 0.0 6.0 0.00 0.00 0.00 45 1008.3
20260506155522 49 167 1.0 6.0 0.00 0.00 0.00 45 1008.4
20260506155023 49 167 0.0 6.0 0.00 0.00 0.00 45 1008.5
20260506154523 48 167 1.0 6.0 0.00 0.00 0.00 46 1008.6
20260506154023 48 165 0.0 6.0 0.00 0.00 0.00 45 1008.6
20260506153523 48 165 0.0 6.0 0.00 0.00 0.00 45 1008.7
20260506153022 47 165 0.0 6.0 0.00 0.00 0.00 46 1008.7
20260506152522 47 165 0.0 6.0 0.00 0.00 0.00 46 1008.7
20260506152023 46 165 0.0 6.0 0.00 0.00 0.00 48 1008.7
20260506151522 45 165 0.0 6.0 0.00 0.00 0.00 48 1008.8
20260506151023 45 165 0.0 6.0 0.00 0.00 0.00 49 1008.9
20260506150523 44 165 0.0 6.0 0.00 0.00 0.00 50 1009.0
20260506150022 44 165 0.0 6.0 0.00 0.00 0.00 51 1009.1
20260506145522 43 165 0.0 6.0 0.00 0.00 0.00 51 1009.1
20260506145022 42 165 0.0 6.0 0.00 0.00 0.00 53 1009.2
20260506144522 42 165 0.0 6.0 0.00 0.00 0.00 53 1009.2
20260506144022 41 165 0.0 6.0 0.00 0.00 0.00 54 1009.2
20260506143521 40 165 0.0 6.0 0.00 0.00 0.00 56 1009.3
20260506143023 40 165 0.0 6.0 0.00 0.00 0.00 56 1009.4
20260506142523 39 165 0.0 6.0 0.00 0.00 0.00 57 1009.5
20260506142023 39 165 0.0 6.0 0.00 0.00 0.00 57 1009.5
20260506141523 39 165 0.0 6.0 0.00 0.00 0.00 58 1009.5
20260506141022 38 165 0.0 6.0 0.00 0.00 0.00 59 1009.6
20260506140523 37 165 0.0 6.0 0.00 0.00 0.00 59 1009.7
20260506140022 37 165 0.0 6.0 0.00 0.00 0.00 60 1009.8
20260506135522 36 165 0.0 6.0 0.00 0.00 0.00 61 1009.8
20260506135023 36 165 0.0 6.0 0.00 0.00 0.00 62 1009.8
20260506134521 35 165 0.0 6.0 0.00 0.00 0.00 62 1009.7
20260506134022 35 165 0.0 6.0 0.00 0.00 0.00 62 1009.8
20260506133522 35 165 0.0 6.0 0.00 0.00 0.00 64 1009.9
20260506133023 34 165 0.0 6.0 0.00 0.00 0.00 64 1010.0
20260506132521 34 165 0.0 6.0 0.00 0.00 0.00 65 1010.0
20260506132022 33 165 0.0 6.0 0.00 0.00 0.00 66 1010.0
20260506131523 33 165 0.0 6.0 0.00 0.00 0.00 66 1010.0
20260506131021 33 165 0.0 6.0 0.00 0.00 0.00 67 1009.9
20260506130522 32 165 0.0 6.0 0.00 0.01 0.00 68 1010.1
20260506130022 32 165 0.0 6.0 0.00 0.01 0.00 68 1010.1
20260506125523 31 165 0.0 6.0 0.00 0.01 0.00 68 1010.1
20260506125021 31 165 0.0 6.0 0.00 0.01 0.00 69 1010.1
20260506124522 31 165 0.0 6.0 0.00 0.01 0.00 68 1010.1
20260506124022 31 165 0.0 6.0 0.00 0.01 0.00 67 1010.1
20260506123523 31 165 0.0 6.0 0.00 0.01 0.00 67 1010.1
20260506123022 30 165 0.0 6.0 0.00 0.01 0.00 66 1010.1
20260506122522 31 165 0.0 6.0 0.00 0.01 0.00 64 1010.1
20260506122021 31 165 0.0 6.0 0.00 0.01 0.00 64 1010.1
20260506121522 31 165 0.0 6.0 0.00 0.01 0.00 64 1010.2
20260506121022 31 165 0.0 6.0 0.00 0.01 0.00 63 1010.3
20260506120523 31 165 0.0 6.0 0.00 0.01 0.00 63 1010.3
20260506120021 31 165 0.0 6.0 0.00 0.01 0.00 63 1010.3
20260506115522 31 165 0.0 6.0 0.00 0.01 0.00 62 1010.3
20260506115022 31 165 0.0 6.0 0.00 0.01 0.00 62 1010.4
20260506114522 31 165 0.0 6.0 0.00 0.01 0.00 62 1010.5
20260506114023 31 165 0.0 6.0 0.00 0.01 0.00 62 1010.6
20260506113521 31 165 0.0 6.0 0.00 0.01 0.00 62 1010.6
20260506113022 32 165 0.0 6.0 0.00 0.01 0.00 62 1010.7
20260506112522 32 165 0.0 6.0 0.00 0.01 0.00 62 1010.7
20260506112023 32 165 0.0 6.0 0.00 0.01 0.00 61 1010.7
20260506111521 32 165 0.0 6.0 0.00 0.01 0.00 61 1010.9
20260506111022 32 165 0.0 6.0 0.00 0.01 0.00 61 1010.9
20260506110522 32 165 0.0 6.0 0.00 0.01 0.00 60 1010.9
20260506110022 33 165 0.0 6.0 0.00 0.01 0.00 60 1011.0
20260506105522 33 165 0.0 6.0 0.00 0.01 0.00 59 1011.1
20260506105023 33 165 0.0 6.0 0.00 0.01 0.00 59 1011.2
20260506104521 33 165 0.0 6.0 0.00 0.01 0.00 59 1011.3
20260506104022 33 165 0.0 6.0 0.00 0.01 0.00 59 1011.3
20260506103523 33 165 0.0 6.0 0.00 0.01 0.00 59 1011.3
20260506103021 33 165 0.0 6.0 0.00 0.01 0.00 59 1011.3
20260506102521 33 165 0.0 6.0 0.00 0.01 0.00 59 1011.4
20260506102022 33 165 0.0 6.0 0.00 0.01 0.00 59 1011.4
20260506101522 33 165 0.0 6.0 0.00 0.01 0.00 59 1011.5
20260506101022 33 165 0.0 6.0 0.00 0.01 0.00 58 1011.7
20260506100521 33 165 0.0 6.0 0.00 0.01 0.00 57 1011.8
20260506100022 33 165 0.0 6.0 0.00 0.01 0.00 57 1011.9
20260506095522 34 165 0.0 6.0 0.00 0.01 0.00 57 1011.9
20260506095021 34 165 0.0 6.0 0.00 0.01 0.00 56 1012.0
20260506094522 34 165 0.0 6.0 0.00 0.01 0.00 56 1012.1
20260506094022 34 165 0.0 6.0 0.00 0.01 0.00 56 1012.2
20260506093521 34 165 0.0 6.0 0.00 0.01 0.00 56 1012.3
20260506093022 34 165 0.0 6.0 0.00 0.01 0.00 56 1012.3
20260506092521 34 165 0.0 6.0 0.00 0.01 0.00 55 1012.4
20260506092021 34 165 0.0 6.0 0.00 0.01 0.00 56 1012.5
20260506091522 34 165 0.0 6.0 0.00 0.01 0.00 55 1012.5
20260506090832 34 165 0.0 6.0 0.00 0.01 0.00 55 1012.6
20260506090333 34 180 0.0 6.0 0.00 0.01 0.00 54 1012.6
20260506085832 34 182 0.0 6.0 0.00 0.01 0.00 55 1012.6
20260506085332 34 182 0.0 6.0 0.00 0.01 0.00 54 1012.8
20260506084831 34 183 0.0 6.0 0.00 0.01 0.00 55 1012.7
20260506084333 35 183 0.0 6.0 0.00 0.01 0.00 55 1012.7
20260506083832 35 182 0.0 6.0 0.00 0.01 0.00 54 1012.8
20260506083333 35 183 0.0 6.0 0.00 0.01 0.00 55 1012.7
20260506082833 35 183 0.0 6.0 0.00 0.01 0.00 54 1012.9
20260506082332 35 183 0.0 6.0 0.00 0.01 0.00 54 1013.0
20260506081832 35 183 0.0 6.0 0.00 0.01 0.00 54 1013.0
20260506081333 35 183 0.0 6.0 0.00 0.01 0.00 53 1013.1
20260506080833 35 183 0.0 6.0 0.00 0.01 0.00 53 1013.2
20260506080332 35 183 0.0 6.0 0.00 0.01 0.00 53 1013.1
20260506073332 36 183 0.0 6.0 0.00 0.01 0.00 52 1013.5
20260506072832 36 187 1.0 6.0 0.00 0.01 0.00 52 1013.7
20260506072333 36 165 0.0 6.0 0.00 0.01 0.00 52 1013.7
20260506071833 36 170 0.0 6.0 0.00 0.01 0.00 52 1013.7
20260506071331 36 169 0.0 6.0 0.00 0.01 0.00 51 1013.8
20260506070831 36 168 0.0 6.0 0.00 0.01 0.00 52 1013.7
20260506070332 36 168 0.0 6.0 0.00 0.01 0.00 52 1013.9
20260506062333 37 155 0.0 1.0 0.00 0.01 0.00 50 1014.5
20260506061833 38 155 0.0 1.0 0.00 0.01 0.00 50 1014.4
20260506061331 38 155 0.0 1.0 0.00 0.01 0.00 48 1014.6
20260506060832 38 155 0.0 1.0 0.00 0.01 0.00 49 1014.5
20260506060332 38 155 0.0 1.0 0.00 0.01 0.00 48 1014.6
20260506051332 40 140 0.0 8.0 0.00 0.01 0.01 44 1015.0
20260506050832 41 153 0.0 8.0 0.00 0.01 0.01 44 1014.9
20260506050333 41 153 0.0 8.0 0.00 0.01 0.01 44 1015.0
20260506044832 41 171 0.0 8.0 0.00 0.01 0.01 44 1015.0
20260506044332 41 171 0.0 8.0 0.00 0.01 0.01 44 1015.0
20260506043832 41 173 0.0 8.0 0.00 0.01 0.01 43 1014.9
20260506043332 42 173 0.0 8.0 0.00 0.01 0.01 44 1015.0
20260506042833 42 175 0.0 8.0 0.00 0.01 0.01 43 1015.0
20260506042331 42 173 0.0 8.0 0.00 0.01 0.01 43 1014.9
20260506041832 42 173 0.0 8.0 0.00 0.01 0.01 42 1015.1
20260506041332 43 175 0.0 8.0 0.00 0.01 0.01 42 1014.9
20260506040831 43 175 0.0 8.0 0.00 0.01 0.01 42 1015.1
20260506040331 43 175 0.0 8.0 0.00 0.01 0.01 41 1015.1
20260506035831 43 175 0.0 8.0 0.00 0.01 0.01 41 1015.1
20260506035332 43 175 0.0 8.0 0.00 0.01 0.01 40 1015.3
20260506034833 44 179 0.0 8.0 0.00 0.01 0.01 40 1015.3
20260506034331 44 179 0.0 8.0 0.00 0.01 0.01 40 1015.2
20260506033831 44 179 0.0 8.0 0.00 0.01 0.01 40 1015.1
20260506033332 44 179 0.0 8.0 0.00 0.01 0.01 38 1015.2
20260506032832 45 179 0.0 8.0 0.00 0.01 0.01 38 1015.1
20260506032332 45 179 0.0 8.0 0.00 0.01 0.01 37 1015.0
20260506031831 45 188 1.0 8.0 0.00 0.01 0.01 37 1015.0
20260506031331 45 188 1.0 8.0 0.00 0.01 0.01 36 1015.0
20260506030831 45 246 0.0 8.0 0.00 0.01 0.01 36 1015.0
20260506030331 46 281 0.0 8.0 0.00 0.01 0.01 35 1015.0
20260506025832 46 0 0.0 8.0 0.00 0.01 0.01 34 1014.9
20260506025332 46 338 0.0 8.0 0.00 0.01 0.01 34 1014.9
20260506024832 46 177 0.0 8.0 0.00 0.01 0.01 34 1014.9
20260506024332 46 181 0.0 8.0 0.00 0.01 0.01 34 1015.0
20260506023832 47 180 0.0 8.0 0.00 0.01 0.01 34 1014.9
20260506023332 47 163 0.0 8.0 0.00 0.01 0.01 33 1014.9
20260506022832 47 192 0.0 8.0 0.00 0.01 0.01 33 1014.9
20260506022332 47 190 1.0 8.0 0.00 0.01 0.01 32 1014.8
20260506021832 48 0 0.0 8.0 0.00 0.01 0.01 33 1014.8
20260506021332 48 24 0.0 8.0 0.00 0.01 0.01 31 1014.9
20260506020831 48 355 0.0 8.0 0.00 0.01 0.01 31 1014.9
20260506020331 48 28 0.0 8.0 0.00 0.01 0.01 31 1014.9
20260506015831 48 28 1.0 8.0 0.00 0.01 0.01 30 1014.9
20260506015331 48 343 0.0 8.0 0.00 0.01 0.01 31 1014.9